Location: Unspecified
(56.5167°N, 0.0000°E)
Time: 15:00:48
(UTC+02:00)

Cosmos 1674 - Visible Passes

Search period start: 03 August 2020 00:00
Search period end: 13 August 2020 00:00
Orbit: 493 x 519 km, 82.5° (Epoch: 02 August)

Date Brightness Start Highest point End Pass type
(mag) Time Alt. Az. Time Alt. Az. Time Alt. Az.
03 Aug 4.5 03:10:20 10° N 03:13:35 27° ENE 03:16:49 10° SE visible
03 Aug 3.4 04:45:46 10° NNW 04:49:11 36° W 04:52:36 10° SSW visible
04 Aug 4.8 02:52:31 10° N 02:55:33 23° ENE 02:58:33 10° ESE visible
04 Aug 3.0 04:27:43 10° NNW 04:31:17 45° W 04:34:24 13° SSW visible
05 Aug 5.0 02:34:45 10° NNE 02:37:29 19° ENE 02:40:14 10° ESE visible
05 Aug 2.8 04:09:42 10° NNW 04:13:22 57° W 04:16:10 16° S visible
06 Aug 5.2 02:17:01 10° NNE 02:19:25 16° ENE 02:21:49 10° E visible
06 Aug 2.6 03:51:43 10° NNW 03:55:26 72° W 03:57:58 19° S visible
07 Aug 5.3 01:59:23 10° NNE 02:01:21 14° ENE 02:03:17 10° E visible
07 Aug 2.6 03:33:44 10° NNW 03:37:29 90° ENE 03:39:48 22° S visible
07 Aug 4.8 05:10:58 10° WNW 05:12:23 12° W 05:13:47 10° WSW visible
08 Aug 5.4 01:41:57 10° NE 01:43:14 11° NE 01:44:32 10° ENE visible
08 Aug 2.8 03:15:47 10° N 03:19:31 72° ENE 03:21:38 24° SSE visible
08 Aug 4.6 04:52:27 10° NW 04:54:33 15° W 04:56:26 11° WSW visible
09 Aug 3.1 02:57:50 10° N 03:01:33 57° ENE 03:03:31 25° SE visible
09 Aug 4.4 04:34:09 10° NW 04:36:41 18° W 04:38:18 14° WSW visible
10 Aug 3.5 02:39:56 10° N 02:43:33 45° ENE 02:45:23 24° SE visible
10 Aug 4.2 04:15:56 10° NW 04:18:50 22° W 04:20:11 18° WSW visible
11 Aug 3.8 02:22:02 10° N 02:25:32 36° ENE 02:27:19 23° ESE visible
11 Aug 3.9 03:57:47 10° NNW 04:00:57 26° W 04:02:06 22° WSW visible
12 Aug 4.1 02:04:10 10° N 02:07:31 30° ENE 02:09:14 21° ESE visible
12 Aug 3.6 03:39:41 10° NNW 03:43:03 32° W 03:44:02 28° WSW visible
